Jackson, KY

4:18 AM EDT on June 28, 2017 (GMT -0400)
Carroll

Weather History for KJKL - December, 2012

Change the Weather History Date:

Tuesday, December 11, 2012

  Actual Average Record
Temperature  
Mean Temperature 32 °F 39 °F  
Max Temperature 34 °F 47 °F 74 °F (2007)
Min Temperature 29 °F 31 °F 14 °F (1995)
Degree Days  
Heating Degree Days 33 26  
Month to date heating degree days 138 268  
Since 1 July heating degree days 1090 1068  
Cooling Degree Days 0 0  
Month to date cooling degree days 0 0  
Year to date cooling degree days 1318 1154  
Moisture  
Dew Point 25 °F    
Average Humidity 80    
Maximum Humidity 96    
Minimum Humidity 63    
Precipitation  
Precipitation T in 0.14 in 1.81 in (2008)
Month to date precipitation 3.95 1.56  
Year to date precipitation 49.55 45.72  
Snow  
Snow T in 0.10 in 2.60 in (1982)
Month to date snowfall T 1.2  
Since 1 July snowfall 1.1 1.8  
Snow Depth 0.00 in    
Sea Level Pressure  
Sea Level Pressure 30.09 in    
Wind  
Wind Speed 2 mph (West)    
Max Wind Speed 10 mph    
Max Gust Speed 16 mph    
Visibility 8 miles    
Events Rain    
T = Trace of Precipitation, MM = Missing Value Source: NWS Daily Summary

Daily Weather History Graph

Daily Weather History Graph

Search for Another Location

Airport or City:

Trip Planner

Search our weather history database for the weather conditions in past years. The results will help you decide how hot, cold, wet, or windy it might be!

Date:

Astronomy

Dec. 11, 2012 Rise Set
Actual Time 7:38 AM EST 5:15 PM EST
Civil Twilight 7:09 AM EST 5:44 PM EST
Nautical Twilight 6:36 AM EST 6:17 PM EST
Astronomical Twilight 6:04 AM EST 6:48 PM EST
Moon 5:33 AM EST (12/11) 3:52 PM EST (12/11)
Length of Visible Light 10h 35m
Length of Day
9h 36m
Waning Crescent, 4% of the Moon is Illuminated
Dec 11
Waning Crescent
Dec 13
New
Dec 20
First Quarter
Dec 28
Full
Jan 4
Last Quarter

Hourly Weather History & Observations

Time (EST) Temp. Windchill Dew Point Humidity Pressure Visibility Wind Dir Wind Speed Gust Speed Precip Events Conditions
12:20 AM 33.8 °F 26.4 °F 30.2 °F 87% 29.92 in 10.0 mi WNW 9.2 mph 16.1 mph N/A   Overcast
12:53 AM 33.1 °F 26.9 °F 30.9 °F 92% 29.94 in 10.0 mi WNW 6.9 mph - N/A   Overcast
1:37 AM 33.8 °F 29.6 °F 30.2 °F 87% 29.93 in 10.0 mi NW 4.6 mph - N/A   Overcast
1:53 AM 33.1 °F 30.0 °F 30.0 °F 89% 29.94 in 10.0 mi WNW 3.5 mph - N/A   Overcast
2:28 AM 33.8 °F 28.6 °F 30.2 °F 87% 29.93 in 10.0 mi West 5.8 mph - N/A   Overcast
2:51 AM 32.0 °F 28.7 °F 28.4 °F 87% 29.94 in 10.0 mi Variable 3.5 mph - N/A   Overcast
2:53 AM 32.0 °F 28.7 °F 28.9 °F 88% 29.95 in 10.0 mi West 3.5 mph - N/A   Overcast
3:50 AM 30.2 °F 22.6 °F 28.4 °F 93% 29.97 in 10.0 mi WNW 8.1 mph - N/A   Overcast
3:53 AM 30.9 °F 25.2 °F 28.0 °F 89% 29.99 in 10.0 mi WNW 5.8 mph - N/A   Overcast
4:26 AM 30.2 °F 22.6 °F 28.4 °F 93% 29.98 in 9.0 mi West 8.1 mph - 0.00 in Rain Light Freezing Rain
4:45 AM 30.2 °F 26.7 °F 28.4 °F 93% 29.98 in 7.0 mi West 3.5 mph - 0.00 in   Overcast
4:53 AM 30.0 °F 25.2 °F 28.0 °F 92% 30.00 in 5.0 mi West 4.6 mph - 0.00 in   Overcast
5:53 AM 30.0 °F 24.1 °F 28.0 °F 92% 30.02 in 9.0 mi West 5.8 mph - N/A   Overcast
6:53 AM 30.0 °F 26.5 °F 27.0 °F 88% 30.06 in 10.0 mi Variable 3.5 mph - N/A   Overcast
7:03 AM 30.2 °F 25.4 °F 26.6 °F 86% 30.03 in 10.0 mi West 4.6 mph - N/A   Overcast
7:53 AM 30.0 °F - 24.1 °F 79% 30.07 in 10.0 mi Calm Calm - N/A   Overcast
8:53 AM 30.0 °F 26.5 °F 23.0 °F 75% 30.11 in 10.0 mi West 3.5 mph - N/A   Overcast
9:53 AM 30.9 °F - 24.1 °F 76% 30.14 in 10.0 mi Calm Calm - N/A   Overcast
10:13 AM 30.2 °F - 24.8 °F 80% 30.11 in 2.0 mi Calm Calm - N/A   Haze
10:22 AM 30.2 °F 25.4 °F 23.0 °F 75% 30.12 in 10.0 mi WNW 4.6 mph - N/A   Overcast
10:45 AM 30.2 °F 25.4 °F 23.0 °F 75% 30.12 in 0.8 mi Variable 4.6 mph - N/A   Haze
10:53 AM 32.0 °F 27.5 °F 24.1 °F 73% 30.16 in 5.0 mi WSW 4.6 mph - N/A   Haze
11:45 AM 32.0 °F - 24.8 °F 75% 30.13 in 1.8 mi Calm Calm - N/A   Haze
11:53 AM 32.0 °F 28.7 °F 24.1 °F 73% 30.16 in 4.0 mi WSW 3.5 mph - N/A   Haze
12:09 PM 32.0 °F - 24.8 °F 75% 30.12 in 0.5 mi Calm Calm - N/A   Haze
12:13 PM 32.0 °F 28.7 °F 24.8 °F 75% 30.12 in 1.8 mi Variable 3.5 mph - N/A   Haze
12:18 PM 32.0 °F 28.7 °F 24.8 °F 75% 30.12 in 4.0 mi Variable 3.5 mph - N/A   Haze
12:24 PM 32.0 °F 28.7 °F 24.8 °F 75% 30.11 in 1.5 mi WSW 3.5 mph - N/A   Haze
12:39 PM 30.2 °F - 23.0 °F 75% 30.11 in 0.2 mi Calm Calm - N/A   Haze
12:53 PM 32.0 °F 28.7 °F 24.1 °F 73% 30.14 in 0.8 mi WNW 3.5 mph - N/A   Haze
1:00 PM 32.0 °F 28.7 °F 23.0 °F 69% 30.10 in 10.0 mi Variable 3.5 mph - N/A   Overcast
1:53 PM 32.0 °F - 24.1 °F 73% 30.14 in 10.0 mi Calm Calm - N/A   Overcast
2:53 PM 32.0 °F - 23.0 °F 69% 30.15 in 10.0 mi Calm Calm - N/A   Overcast
3:53 PM 32.0 °F - 23.0 °F 69% 30.16 in 10.0 mi Calm Calm - N/A   Overcast
4:53 PM 32.0 °F - 24.1 °F 73% 30.18 in 10.0 mi Calm Calm - N/A   Overcast
5:53 PM 32.0 °F - 21.0 °F 64% 30.20 in 10.0 mi Calm Calm - N/A   Overcast
6:53 PM 30.9 °F - 21.0 °F 67% 30.21 in 10.0 mi Calm Calm - N/A   Mostly Cloudy
7:53 PM 30.9 °F - 21.0 °F 67% 30.22 in 10.0 mi Calm Calm - N/A   Overcast
8:38 PM 30.2 °F - 21.2 °F 69% 30.19 in 10.0 mi Calm Calm - N/A   Scattered Clouds
8:53 PM 30.0 °F - 21.0 °F 69% 30.23 in 10.0 mi Calm Calm - N/A   Clear
9:53 PM 30.0 °F - 21.0 °F 69% 30.23 in 10.0 mi Calm Calm - N/A   Clear
10:53 PM 28.9 °F - 21.0 °F 72% 30.25 in 10.0 mi Calm Calm - N/A   Clear
11:53 PM 28.9 °F - 21.0 °F 72% 30.26 in 10.0 mi Calm Calm - N/A   Clear